Theta_e
300 297 298 299 297 294 292 291 291 292 292 291 289 288 287 285 285 286 287 286 286 287 286 285 285 285 285 285 285 285 285 284 285 284 284 285 287 287 288 287 287 289 292
296 296 295 294 294 292 292 291 291 291 292 292 291 287 287 285 285 286 286 286 286 286 286 285 284 284 284 284 284 284 283 284 284 282 281 280 284 286 287 287 289 287 290
294 293 292 293 293 291 290 291 291 291 291 291 289 286 286 284 284 284 284 285 286 286 285 284 284 283 283 283 283 283 283 281 282 283 282 279 278 283 285 286 286 286 287
294 293 292 291 291 291 291 291 291 291 291 289 289 286 287 285 286 286 285 285 285 285 285 284 284 283 283 282 282 284 282 282 280 282 285 283 282 279 278 283 285 286 287
294 293 293 295 292 291 290 290 290 290 290 289 289 287 286 286 283 284 284 284 283 284 283 284 283 282 282 282 282 282 281 282 281 281 281 281 281 282 279 277 279 283 284
293 294 293 292 290 289 290 289 289 289 290 289 288 287 285 283 283 284 283 283 283 282 282 283 281 281 281 281 281 281 281 280 280 280 280 280 279 279 278 278 278 279 281
292 290 290 291 290 288 289 289 289 288 288 288 287 287 285 285 283 284 284 282 282 280 280 281 280 280 280 281 280 280 279 279 279 279 279 281 280 281 280 279 278 277 280
291 291 290 290 289 289 288 289 288 288 287 288 286 286 285 285 284 284 284 283 283 281 280 280 279 279 279 279 279 278 278 279 279 278 279 279 280 280 280 279 278 275 277
290 291 289 289 288 288 288 289 288 288 287 287 286 285 285 285 284 283 283 282 281 280 279 279 278 278 278 278 278 277 278 278 279 279 279 279 279 280 280 280 279 277 273
291 291 289 289 289 289 289 289 289 288 287 287 286 285 285 285 284 282 281 280 280 279 278 277 277 277 277 277 277 277 277 277 278 278 277 277 277 277 277 278 277 277 275
291 291 291 291 290 289 288 288 287 287 286 285 285 285 284 284 282 282 281 280 279 278 277 277 276 276 276 276 275 276 276 274 274 275 275 275 275 274 274 274 274 274 274
292 291 291 290 288 288 287 287 287 287 287 285 284 284 282 281 281 281 279 278 278 277 277 276 276 275 275 274 274 273 274 273 272 273 273 272 273 271 272 271 271 271 272
292 292 290 289 290 289 288 288 287 287 286 283 282 282 281 280 280 278 277 277 276 276 276 275 274 274 273 273 273 272 272 272 272 271 271 270 270 270 270 270 270 270 271
295 294 292 290 289 289 288 287 286 286 284 283 282 281 280 280 278 277 276 276 275 274 274 273 272 272 272 272 272 272 271 271 271 271 271 271 271 270 269 270 269 270 269
292 293 293 292 290 289 288 287 286 284 284 283 282 281 280 279 277 276 276 274 274 273 273 272 271 271 271 271 271 271 271 270 270 271 271 272 272 273 274 272 272 271 270
295 294 292 291 289 288 289 286 286 283 283 282 281 280 278 276 275 275 273 273 272 272 272 271 270 269 271 274 276 273 271 272 271 271 272 272 272 273 275 276 277 276 273
296 294 293 291 289 288 287 285 285 283 282 281 280 277 276 275 274 274 273 272 271 271 271 270 270 270 271 276 277 277 274 273 272 272 271 271 273 273 273 275 277 277 277
298 292 290 290 290 289 286 286 281 282 282 281 279 276 275 274 273 272 272 271 270 270 269 269 270 270 271 276 277 276 274 273 272 272 272 272 273 274 274 273 273 274 274
298 298 293 292 290 289 287 283 281 281 280 279 277 275 275 273 272 271 271 270 269 269 269 269 268 269 270 276 276 275 273 273 272 273 273 273 273 275 277 274 273 273 273
292 290 291 289 289 287 282 281 280 279 278 278 277 275 274 273 271 271 270 269 269 268 269 268 267 268 266 273 275 275 273 267 270 272 273 275 274 276 277 275 273 270 270
288 287 285 285 285 281 279 279 278 278 278 276 274 273 273 272 271 270 270 268 268 269 268 267 267 266 266 268 275 276 272 270 269 271 271 273 275 276 278 277 272 270 274
290 288 284 283 281 279 278 277 277 276 274 274 272 271 271 271 269 268 267 267 267 266 266 266 266 268 268 270 274 275 276 275 269 267 272 271 275 275 275 273 273 275 273
289 290 286 281 279 276 278 278 275 273 272 271 271 270 268 268 267 266 265 265 265 265 265 266 266 267 269 269 274 275 274 275 272 272 272 273 273 272 270 271 272 270 266
286 288 288 287 286 278 278 279 275 274 271 269 268 267 266 265 266 266 266 266 265 266 267 267 267 267 267 267 268 268 268 272 271 270 265 268 268 268 268 266 267 266 266
285 286 285 284 285 284 279 279 274 273 271 270 267 266 266 265 264 266 266 266 268 269 268 268 267 266 266 267 269 269 268 269 269 258 256 257 261 262 263 263 264 265 265
279 282 284 282 284 285 280 279 275 273 271 268 266 266 265 265 265 265 266 271 271 273 274 273 269 268 271 273 275 274 273 271 270 256 252 255 259 260 261 261 262 263 264
Wind_Speed
15 9 15 17 15 14 16 18 17 16 13 9 8 6 7 5 4 5 7 7 6 6 6 4 5 5 4 4 3 1 1 2 3 4 4 4 7 4 3 4 5 5 5
9 8 10 12 17 18 17 17 17 17 14 11 9 5 6 2 3 3 5 7 7 7 6 6 5 5 4 5 4 3 2 2 4 3 3 6 6 5 11 7 5 6 5
12 8 10 14 15 18 19 19 19 19 16 14 9 5 5 4 3 5 6 6 8 8 7 7 5 5 4 5 4 4 4 1 2 5 1 3 3 9 4 10 6 6 8
10 8 11 11 17 17 17 18 18 18 14 15 14 12 12 10 8 10 7 6 8 7 7 7 6 6 3 6 4 4 3 3 1 2 0 1 2 3 6 4 7 12 5
13 12 16 19 14 16 17 16 17 17 15 17 16 12 11 8 4 5 9 8 6 7 7 7 7 6 4 6 6 4 3 3 3 2 2 1 3 5 5 9 3 9 9
9 10 7 10 10 11 13 14 16 17 16 17 16 18 16 10 9 10 10 9 8 6 7 7 6 6 5 6 5 4 4 2 1 1 2 3 3 3 3 7 11 13 8
9 10 12 13 13 15 15 14 16 16 15 18 18 20 16 15 14 14 12 13 9 5 9 7 7 5 5 6 6 5 3 1 1 3 3 3 4 2 4 8 11 9 10
8 11 13 13 13 15 15 16 15 15 16 18 17 16 15 11 10 13 11 11 11 9 9 8 8 8 7 6 6 4 3 2 2 5 4 3 3 3 3 5 9 15 10
10 11 9 12 13 14 17 19 17 17 17 18 15 15 13 15 14 13 10 9 9 8 10 10 9 7 7 7 6 4 4 3 3 4 4 4 3 3 2 2 3 7 13
8 8 10 12 12 13 14 14 15 18 14 15 15 14 15 16 12 11 13 11 9 10 11 10 9 8 7 7 6 4 3 4 3 3 4 3 1 2 2 3 4 4 9
10 10 10 12 12 10 13 14 14 15 14 14 15 15 14 14 12 13 12 12 11 11 11 11 10 9 7 7 6 4 3 3 1 3 4 5 3 3 3 3 4 6 7
8 8 11 9 10 13 13 17 15 17 18 13 13 14 11 11 12 12 10 11 12 10 12 11 10 9 9 7 6 5 3 3 4 5 5 5 4 3 5 4 7 8 8
8 8 7 11 14 13 13 15 16 19 13 12 13 13 13 13 14 11 11 11 12 10 10 9 9 8 8 7 6 5 5 5 5 5 6 6 5 7 6 7 7 8 10
14 11 9 10 8 11 14 14 15 16 14 14 15 16 16 15 13 12 13 13 12 12 10 8 8 8 8 8 6 6 6 5 5 6 6 7 9 9 9 8 10 11 11
9 9 11 10 12 13 13 13 14 14 15 16 16 17 14 14 13 14 13 11 12 10 10 10 9 8 7 6 8 8 6 6 6 6 7 8 10 16 16 10 10 12 11
20 16 12 12 14 14 16 16 15 15 16 16 17 15 15 15 15 15 15 14 13 12 11 10 11 10 7 13 14 11 7 7 8 6 7 8 10 15 22 23 25 22 15
21 15 12 12 11 11 13 13 16 13 16 15 14 15 15 16 16 16 16 16 15 13 11 10 9 9 7 14 14 14 8 7 7 7 8 9 9 12 13 19 26 24 28
23 11 9 10 12 9 9 9 11 14 16 15 15 15 17 17 15 15 16 15 14 14 13 12 11 10 8 14 14 13 7 7 8 8 9 11 12 12 13 16 15 17 18
23 17 10 10 9 10 9 10 11 13 14 16 18 18 18 18 17 16 16 13 13 12 11 10 11 10 8 19 15 12 7 8 8 8 9 10 12 16 22 16 16 17 18
16 17 15 6 7 2 7 10 12 14 16 17 16 15 16 18 19 17 16 13 12 11 9 9 8 9 8 14 16 14 6 6 5 7 10 12 15 19 23 15 15 15 17
12 11 10 7 7 3 4 7 9 15 8 11 13 14 14 15 14 14 13 13 13 12 11 10 9 9 8 10 15 16 6 6 5 5 4 6 17 21 23 24 11 14 22
16 11 8 8 4 3 3 5 10 5 7 11 12 13 13 11 11 14 11 13 13 13 11 11 8 7 9 12 16 14 11 10 5 4 3 7 18 22 22 17 21 26 22
15 13 9 8 5 4 6 7 3 9 10 11 11 12 12 11 12 15 14 11 11 11 10 10 8 8 7 6 15 14 9 5 2 3 7 14 16 17 14 18 22 17 10
16 12 15 16 14 6 6 7 9 11 12 11 10 11 13 12 11 9 10 11 11 10 10 9 9 8 7 6 5 3 3 4 2 1 2 7 10 12 12 9 11 9 9
15 13 15 13 17 9 9 10 10 12 13 13 14 15 10 12 12 12 12 12 10 11 12 10 10 10 9 7 11 8 5 5 4 3 2 3 4 5 6 7 8 9 10
17 18 18 15 16 16 10 8 12 13 12 13 11 10 11 15 15 13 11 18 16 18 18 19 15 7 12 15 13 10 8 5 7 3 1 3 4 5 7 8 9 9 12
Wind_Direction
249 224 202 193 171 164 160 164 160 167 160 163 158 159 175 170 165 171 155 155 154 159 155 153 157 162 153 145 128 146 12 352 329 330 301 299 287 298 348 307 298 323 325
251 242 183 170 172 164 164 164 167 167 171 170 170 157 155 154 150 147 160 165 165 169 165 162 170 166 151 130 124 113 51 17 32 9 328 340 331 1 329 323 318 335 350
228 211 176 176 162 166 166 167 170 173 173 168 150 106 94 84 145 187 182 185 170 172 164 168 162 179 174 145 143 129 118 111 358 41 239 331 315 336 330 332 327 338 336
224 191 178 171 173 173 168 169 170 174 173 163 170 171 186 180 202 186 177 168 171 171 164 168 173 188 182 124 130 131 129 126 250 334 12 232 176 280 316 317 318 307 321
209 187 189 186 176 165 171 170 170 175 172 177 183 181 189 188 148 158 161 168 168 171 175 173 175 175 170 133 138 133 142 158 157 189 325 286 259 240 252 295 268 304 296
200 197 174 144 167 166 167 169 171 180 178 180 183 189 187 170 161 169 174 178 177 177 179 175 165 166 167 139 144 141 133 136 165 223 250 254 276 293 294 295 304 290 285
178 164 161 172 171 175 176 176 179 185 182 185 189 192 188 185 182 177 180 174 174 183 188 164 166 164 162 134 132 134 144 182 182 248 259 255 247 264 287 298 298 294 312
181 178 179 179 180 184 180 183 184 187 189 191 193 192 187 190 192 187 178 184 183 178 164 161 156 155 154 136 131 131 153 191 225 252 245 258 259 260 262 275 311 310 297
183 188 178 183 183 186 193 187 187 195 193 193 191 195 192 192 193 187 179 180 168 161 158 154 149 147 144 133 134 152 173 207 222 229 241 241 244 251 290 318 305 297 307
180 190 195 192 192 192 192 196 201 203 197 194 193 193 194 198 191 177 181 172 163 150 151 149 147 149 153 134 141 160 177 205 203 227 241 237 247 340 359 325 306 294 286
209 205 204 202 200 184 187 199 198 197 200 197 195 193 195 190 180 187 185 168 155 155 154 153 153 156 150 138 147 161 178 197 183 253 254 275 314 320 307 298 278 269 265
225 214 209 195 187 195 189 197 198 202 205 194 192 198 183 178 183 184 170 156 158 157 157 157 154 158 153 149 146 152 150 189 231 258 264 278 296 285 271 267 266 261 267
251 228 213 207 205 203 202 202 201 210 198 182 180 184 182 181 185 172 160 160 150 155 154 154 156 155 144 138 137 153 181 209 232 250 264 278 277 264 254 249 257 262 259
242 219 222 219 207 206 203 205 206 202 190 181 183 186 187 183 178 160 156 158 157 158 155 154 145 145 143 144 163 177 190 206 227 241 255 262 261 258 260 256 252 253 252
224 224 231 221 215 213 212 209 211 193 185 184 187 192 182 171 162 159 158 152 152 159 152 145 146 145 149 164 172 182 182 201 226 242 249 252 253 260 257 255 256 255 256
261 241 223 226 225 214 213 209 203 193 182 187 190 178 170 163 167 159 159 157 155 153 154 160 154 158 176 188 184 176 189 208 226 246 257 257 258 263 267 271 277 277 277
257 249 234 222 230 223 211 204 200 168 182 182 175 168 165 171 172 163 164 166 163 155 158 159 161 170 177 185 192 203 197 212 230 249 263 267 264 261 265 273 279 282 279
277 248 235 232 230 228 202 201 159 174 178 175 172 168 172 171 167 166 170 166 162 163 166 171 170 170 175 185 198 203 205 218 229 249 256 263 271 272 283 278 275 272 270
305 287 242 227 223 217 205 162 160 165 170 177 179 176 174 170 167 172 172 166 162 160 166 169 166 170 168 186 189 194 201 217 233 250 261 262 269 281 287 289 288 292 288
348 334 321 287 277 263 147 158 170 172 185 187 181 171 172 170 174 171 168 163 158 158 164 160 166 172 169 185 196 197 180 190 220 240 261 260 279 290 292 295 300 301 302
327 329 333 333 329 326 143 167 162 202 180 151 154 167 173 172 171 161 162 158 149 154 162 162 169 178 163 196 196 202 180 187 201 231 233 260 282 290 307 308 313 298 301
329 323 312 318 310 177 154 180 205 147 132 147 155 162 163 161 158 157 153 160 156 158 161 161 174 168 180 185 197 199 207 217 161 190 254 265 289 313 311 317 308 310 319
321 318 308 312 293 230 191 212 205 145 144 152 163 162 153 153 160 157 162 155 166 160 163 173 165 166 166 184 182 199 203 224 212 154 272 318 313 319 314 309 315 319 303
303 308 309 307 296 214 227 240 160 162 155 158 163 160 160 156 160 161 168 162 175 170 167 173 155 152 159 169 185 199 218 245 249 46 323 327 325 309 307 302 308 300 299
302 303 293 274 278 270 214 201 184 177 178 170 166 168 175 173 166 174 176 167 184 180 172 171 152 155 172 187 185 190 206 203 177 113 34 341 304 311 319 310 309 304 302
305 303 290 282 278 272 249 214 175 183 180 174 172 189 179 174 172 169 168 182 175 177 172 162 130 137 157 180 178 163 132 132 76 60 59 286 291 324 309 312 312 305 303